UmKA 1 (RS40S)
1 57172U 23091G   26144.14172520  .00004624  00000-0  21445-3 0  9991
2 57172  97.5063 202.9351 0012485 196.3284 163.7551 15.20495225160357
CubeBel-2 (EU11S)
1 57175U 23091K   26144.16326882  .00009786  00000-0  35503-3 0  9992
2 57175  97.5062 207.1758 0009970 190.7629 169.3399 15.28497261160636
RS-38S
1 57189U 23091Z   26144.16768524  .00013312  00000-0  39201-3 0  9999
2 57189  97.5100 213.1859 0008574 149.1027 211.0722 15.35144064161007
SONATE-2
1 59112U 24043Q   26143.92102891  .00028607  00000-0  40029-3 0  9990
2 59112  97.5513 292.8682 0005778 284.2278  75.8334 15.56765479124111
GRBBeta
1 60237U 24128C   26143.79490765  .00003518  00000-0  24704-3 0  9995
2 60237  61.9905 301.8335 0044050 129.6384 230.8609 15.06409630102598
Curium One
1 60242U 24128H   26143.77221853  .00007216  00000-0  42054-3 0  9996
2 60242  61.9791 292.2227 0043624 125.8313 234.6848 15.12068580102764
ROBUSTA-3A
1 60243U 24128J   26144.12055758  .00007623  00000-0  45314-3 0  9990
2 60243  61.9870 293.3282 0044766 123.3366 237.2027 15.11245473102782
CatSat
1 60246U 24125J   26144.10623656  .00041438  00000-0  59573-3 0  9990
2 60246  97.2115 356.3440 0021052 269.0939  90.7904 15.55709327103645
HYPERVIEW-1G (RS66S)
1 61772U 24199AP  26144.13892507  .00091458  00000-0  76556-3 0  9999
2 61772  97.2926  22.7506 0005135  29.3124 330.8425 15.69689596130897
AO-123
1 61781U 24199AY  26144.18312610  .00006380  00000-0  18797-3 0  9999
2 61781  97.3035  13.0728 0015072  41.3262 318.9119 15.35272478130242
JINJUSat 1B
1 63210U 25052A   26143.66966106  .00012400  00000-0  39576-3 0  9992
2 63210  97.4028  40.4036 0004231 141.9581 218.1960 15.32627358 66348
NUSHSAT 1
1 63211U 25052B   26143.68591766  .00014756  00000-0  43821-3 0  9995
2 63211  97.4004  40.9052 0003971 140.7970 219.3561 15.34878626 66387
TEVEL2-4
1 63213U 25052D   26143.65753375  .00013795  00000-0  42640-3 0  9990
2 63213  97.3933  40.0220 0002951 149.3277 210.8139 15.33627013 66354
TEVEL2-5
1 63214U 25052E   26144.19741403  .00014501  00000-0  45005-3 0  9994
2 63214  97.3926  40.5165 0002970 148.3897 211.7524 15.33485403 66430
TEVEL2-6
1 63215U 25052F   26144.14390994  .00014376  00000-0  44677-3 0  9999
2 63215  97.3932  40.4479 0003065 147.9028 212.2401 15.33445585 66428
TEVEL2-1
1 63217U 25052H   26144.16485881  .00013400  00000-0  42322-3 0  9995
2 63217  97.3904  40.1209 0002596 158.5616 201.5735 15.32947494 66411
TEVEL2-3
1 63218U 25052J   26143.44230547  .00014370  00000-0  45322-3 0  9993
2 63218  97.3905  39.4180 0002485 162.6568 197.4759 15.32976783 66301
TEVEL2-2
1 63219U 25052K   26143.90418919  .00014017  00000-0  44257-3 0  9990
2 63219  97.3902  39.8623 0002524 160.1764 199.9577 15.32946433 66371
TEVEL2-9
1 63237U 25052AD  26143.65474821  .00012062  00000-0  40446-3 0  9990
2 63237  97.3964  39.0401 0004810 211.1736 148.9220 15.31038706 66273
TEVEL2-7
1 63238U 25052AE  26143.95259399  .00011909  00000-0  40267-3 0  9995
2 63238  97.3968  39.2630 0004911 210.6589 149.4366 15.30773170 66318
TEVEL2-8
1 63239U 25052AF  26143.96058333  .00011969  00000-0  40489-3 0  9994
2 63239  97.3967  39.2487 0004890 211.7616 148.3331 15.30755516 66311
HYDRA-W
1 63490U 25052BL  26113.93882235  .05662091  24406-5  29537-2 0  9997
2 63490  97.3690  18.2798 0008685 203.5899 156.4993 16.20186780 62336
HADES-ICM (SO-125)
1 63492U 25052BN  26141.26653903  .06532167  24596-5  20834-2 0  9996
2 63492  97.3646  46.2798 0012082 212.8267 147.2275 16.26141053 66568
SPIRONE
1 66657U 25274H   26144.06846278  .00001603  00000-0  15774-3 0  9995
2 66657  97.7481  73.7069 0013767  93.9177 266.3617 14.93427948 26628
K-HERO
1 66660U 25274L   26143.74492727  .00001611  00000-0  15678-3 0  9991
2 66660  97.7488  73.5310 0015621  98.9494 261.3495 14.93850045 26586
SNUGLITE-III DURI
1 66661U 25274M   26144.06834624  .00001342  00000-0  13125-3 0  9990
2 66661  97.7485  73.8697 0016189  98.9109 261.3944 14.93902821 26633
SilverSat
1 66909U 98067XV  26113.44966717  .07226154  12288-4  11979-2 0  9998
2 66909  51.6027 190.0749 0007952 333.4666  26.5949 16.32457272 22308
SAKHACUBE-CHOLBON
1 67290U 25313AU  26144.13938772  .00007996  00000-0  32874-3 0  9993
2 67290  97.3936 219.4831 0010882  84.4674 275.7804 15.24377125 22311
RS95S (QMR-KWT-2)
1 67291U 25313AV  26144.14812903  .00011761  00000-0  46532-3 0  9993
2 67291  97.3936 219.6205 0010406  84.1490 276.0934 15.25560627 22325
Ten-Koh2
1 68261U 25241B   26144.07703969  .00006557  00000-0  28413-3 0  9999
2 68261  51.6609  74.3485 0006614  70.5178 289.6514 15.23552052 11230
JACK-002
1 68417U 26067B   26144.18666455  .00005256  00000-0  25409-3 0  9996
2 68417  97.4551 103.0822 0002967  46.7065 313.4416 15.19044219  8306
DISCO 2
1 68431U 26067R   26144.13632072  .00005685  00000-0  27764-3 0  9997
2 68431  97.4586 103.0231 0004429  84.7302 275.4438 15.18647874  8299
HADES-SA (SpinnyONE)
1 68446U 26067AG  26140.67798287  .00011372  00000-0  56129-3 0  9996
2 68446  97.4403  99.4112 0008038 151.4172 208.7504 15.18027540  7751
PARUS-6U1
1 68456U 26067AS  26144.11846940  .00004254  00000-0  21718-3 0  9997
2 68456  97.4539 102.8598 0006953 133.7074 226.4736 15.17222098  8284
SAL-E
1 68458U 26067AU  26143.85314620  .00005825  00000-0  29497-3 0  9991
2 68458  97.4465 102.5517 0006988 141.8451 218.3278 15.17355150  8242
FSI-SAT 2
1 68792U 26088A   26143.84649727  .00003294  00000-0  22606-3 0  9996
2 68792  97.5034 293.7256 0014541 185.5140 174.5930 15.06594949  4628
OrigamiSat 2
1 68795U 26088D   26144.14845858  .00003109  00000-0  20519-3 0  9992
2 68795  97.5055 294.0923 0016497 158.2054 201.9880 15.08062699  4670
ARICA 2
1 68796U 26088E   26143.94699006  .00003613  00000-0  23695-3 0  9990
2 68796  97.5039 293.8936 0016514 156.7971 203.4006 15.08190567  4645
WASEDA-SAT-ZERO-II
1 68797U 26088F   26144.14446741  .00005096  00000-0  33141-3 0  9994
2 68797  97.5037 294.0897 0016470 156.0708 204.1290 15.08311916  4674
MANGARO-II-Piscus
1 68798U 26088G   26143.93904941  .00002957  00000-0  19245-3 0  9994
2 68798  97.5044 293.9076 0019830 160.1780 200.0224 15.08569708  4642
IO-86
1 40931U          25360.30710720  .00000000  00000-0  12800-3 0    00
2 40931   6.0006 332.5373 0012733 338.8432   8.1437 14.79075515    01
LILIUM-4                
1 71922C 26067AC  26089.50133053 -.00014632  00000+0 -74472-3 0    04
2 71922  97.4497  49.1617 0004341   5.9603 355.7042 15.16896692    16
